Location: ????????
(37.9452°N, 23.1472°E)
Time: 23:15:16
(UTC+00:00)

FENGYUN 1C DEB - Visible Passes

Search period start: 15 September 2024 00:00
Search period end: 25 September 2024 00:00
Orbit: 669 x 854 km, 98.9° (Epoch: 13 September)

Date Brightness Start Highest point End Pass type
(mag) Time Alt. Az. Time Alt. Az. Time Alt. Az.
15 Sep ? 01:17:33 13° SE 01:21:55 39° ENE 01:27:00 10° N visible
15 Sep ? 02:57:41 16° SW 03:00:49 26° W 03:05:20 10° NW visible
16 Sep ? 00:40:54 10° ESE 00:44:32 19° ENE 00:48:13 10° NNE visible
16 Sep ? 02:19:25 22° S 02:22:49 58° W 02:28:16 10° NNW visible
17 Sep ? 01:41:08 19° SSE 01:45:00 63° ENE 01:50:28 10° N visible
17 Sep ? 03:21:15 10° SW 03:24:14 16° W 03:27:27 10° NW visible
18 Sep ? 01:02:47 10° SE 01:07:21 29° ENE 01:12:02 10° N visible
18 Sep ? 02:42:53 20° SSW 02:46:00 36° W 02:51:03 10° NNW visible
19 Sep ? 00:27:16 10° E 00:29:53 14° ENE 00:32:30 10° NNE visible
19 Sep ? 02:04:30 24° S 02:07:55 82° WSW 02:13:29 10° NNW visible
20 Sep ? 01:26:02 16° SE 01:30:02 45° ENE 01:35:17 10° N visible
20 Sep ? 03:06:09 15° SW 03:09:00 22° W 03:13:15 10° NW visible
21 Sep ? 00:48:17 10° ESE 00:52:19 21° ENE 00:56:22 10° NNE visible
21 Sep ? 02:27:39 25° SSW 02:30:40 51° W 02:36:04 10° NNW visible
22 Sep ? 01:49:07 24° SSE 01:52:32 72° ENE 01:58:04 10° N visible
22 Sep ? 03:29:14 10° WSW 03:31:50 14° W 03:34:31 10° WNW visible
23 Sep ? 01:10:33 14° SE 01:14:34 33° ENE 01:19:27 10° N visible
23 Sep ? 02:50:39 21° SW 02:53:16 32° W 02:58:11 10° NW visible
24 Sep ? 00:33:39 10° E 00:36:45 16° ENE 00:39:53 10° NNE visible
24 Sep ? 02:12:04 30° S 02:14:53 73° WSW 02:20:26 10° NNW visible
